Location: *
(51.2167°N, 10.0667°E)
Time: 01:57:43
(UTC+00:00)

Cosmos 1975 - Pass Details

Date: 12 December 2019
Orbit: 543 x 561 km, 82.5° (Epoch: 22 January)

Event Time Altitude Azimuth Distance (km) Brightness Sun altitude
Rises 17:28:01 0° 350° (N) 2,722 6.3 -20.0°
Reaches altitude 10° 17:30:12 10° 352° (N) 1,825 5.4 -20.4°
Maximum altitude 17:34:13 76° 79° (E) 570 2.6 -21.0°
Drops below altitude 10° 17:38:12 10° 165° (SSE) 1,817 5.4 -21.6°
Sets 17:40:22 0° 167° (SSE) 2,708 6.3 -21.9°
